Regional Weather Roundup
Issued by NWS State College, PA

Home | Current Version | Previous Version | Text Only | Print | Product List | Glossary On
Versions: 1 2 3 4 5 6 7 8 9 10 11 12 13 14 15 16 17 18 19 20 21 22 23 24 25 26 27 28 29 30 31 32 33 34 35 36 37 38 39 40 41 42 43 44 45 46 47 48 49 50
000
ASUS41 KCTP 301703
RWRCTP

REGIONAL WEATHER ROUNDUP
NATIONAL WEATHER SERVICE STATE COLLEGE PA
100 PM EDT THU OCT 30 2014

Note: "fair" indicates few or no clouds below 12,000 feet with no
significant weather and/or obstructions to visibility.

* = STATION THAT DOES NOT REPORT PRECIPITATION /E.G. RAIN...SNOW...ETC/
    THUNDER OR FOG.

PAZ002>004-007>009-013>016-020>023-029>032-301800-
WESTERN PENNSYLVANIA

CITY           SKY/WX    TMP DP  RH WIND       PRES   REMARKS
ERIE           CLOUDY    48  37  65 N5        30.10S
MEADVILLE      PTSUNNY   47  39  74 W3        30.08F
FRANKLIN*      CLOUDY    45  37  76 W8        30.09S
NEW CASTLE       N/A     49  37  63 VRB6      30.10F
BEAVER COUNTY  CLOUDY    48  37  66 NW5       30.10S
BUTLER*        CLOUDY    48  36  61 NW3       30.11S
PITTSBURGH INT PTSUNNY   48  37  65 NW3       30.09F
PITTSBURGH     CLOUDY    49  34  56 N6        30.08F
INDIANA*       PTSUNNY   46  37  71 CALM      30.11F
LATROBE        PTSUNNY   46  39  76 CALM      30.11F
WASHINGTON CO* CLOUDY    48  36  61 W5        30.11F
$$

PAZ004>006-010>012-017>019-024>028-033>037-041-042-045-046-049>053-301800-
CENTRAL PENNSYLVANIA

CITY           SKY/WX    TMP DP  RH WIND       PRES   REMARKS
BRADFORD       LGT RAIN  41  36  82 NW8       30.05S
DUBOIS         CLOUDY    46  33  60 NW8       30.05S
CLEARFIELD     CLOUDY    48  33  56 W8        30.05F
JOHNSTOWN      CLOUDY    44  34  67 NW7       30.05S
ALTOONA        CLOUDY    48  36  63 NW9       30.06F
STATE COLLEGE  CLOUDY    50  34  53 NW6       30.05S
WILLIAMSPORT   CLOUDY    52  34  50 N8        30.04F
SELINSGROVE    CLOUDY    54  37  52 VRB6      30.05F
FT INDIANTOWN  NOT AVBL
CAPITAL CITY   PTSUNNY   54  37  52 NW9       30.05F
HARRISBURG     PTSUNNY   56  40  55 W13       30.03F
YORK           PTSUNNY   54  39  57 NW9       30.05S
$$

PAZ038>040-043-044-047-048-054-055-060>062-067>071-301800-
EASTERN PENNSYLVANIA

CITY           SKY/WX    TMP DP  RH WIND       PRES   REMARKS
SCRANTON       CLOUDY    50  34  54 NW10      30.03F
MOUNT POCONO   CLOUDY    45  33  63 NW14G22   29.99F
ALLENTOWN      PTSUNNY   54  36  50 N10       30.02F
QUAKERTOWN*    MOSUNNY   54  39  58 NW3       30.02F
READING        MOSUNNY   56  37  49 VRB5      30.02F
LANCASTER      MOSUNNY   55  38  52 N8        30.03F
COATESVILLE    PTSUNNY   52  39  62 N7        30.03S
POTTSTOWN      MOSUNNY   55  37  50 MISG      30.03F
BLUE BELL      MOSUNNY   59  41  51 N7        30.01F
DOYLESTOWN     MOSUNNY   56  40  55 NW10      30.01F
WILLOW GROVE   NOT AVBL
NORTH PHILA    SUNNY     59  37  44 N9        30.02F
PHILADELPHIA   MOSUNNY   58  39  49 N8        30.02F
$$



USA.gov is the U.S. government's official web portal to all federal, state and local government web resources and services.